Torna al catalogo

STARLINK-34182

AttivoComunicazioniVLEO
NORAD 64013·PAYLOAD·🇺🇸 United States

Lanciato May 14, 2025 da Cape Canaveral Space Force Station

Loading…

Prossimi Passaggi (prossime 24 ore)

TLE

AggiornatoSource: CelesTrak SupGP

Epoca: Sep 15, 2026, 03:32 UTC

1 64013C 25101V   26258.14770833  .00035899  00000+0  12998-2 0  2581
2 64013  43.0021   4.8320 0001496 267.7289 212.3107 15.27573579    12

Traccia STARLINK-34182 in tempo reale con AllMySat

Download on the App Store